Location: Burland Observatory
(39.4088°N, 105.4217°W)
Time: 21:34:17
(UTC-07:00)

Vanguard 3 - Pass Details

Date: 15 December 2019
Orbit: 507 x 3263 km, 33.4° (Epoch: 23 January)

Event Time Altitude Azimuth Distance (km) Brightness Sun altitude
Rises 14:32:16 0° 267° (W) 6,010 12.2 17.6°
Reaches altitude 10° 14:39:08 10° 246° (WSW) 5,526 12.7 16.8°
Maximum altitude 14:46:19 14° 221° (SW) 5,569 15.6 15.9°
Drops below altitude 10° 14:54:18 10° 196° (SSW) 6,152 13.0 14.9°
Sets 15:03:14 0° 175° (S) 7,187 12.6 13.7°
